Location: Ash Shall?l al Awwal
(24.0167°N, 32.8667°E)
Time: 03:31:31
(UTC+00:00)

Cosmos 1470 Rocket - Pass Details

Date: 02 March 2021
Orbit: 602 x 635 km, 82.5° (Epoch: 12 April)

Event Time Altitude Azimuth Distance (km) Brightness Sun altitude
Rises 16:34:34 0° 184° (S) 2,914 7.1 -10.5°
Reaches altitude 10° 16:36:48 10° 183° (S) 2,010 6.3 -11.1°
Maximum altitude 16:41:16 87° 92° (E) 638 3.6 -12.1°
Drops below altitude 10° 16:45:44 10° 6° (N) 2,013 6.1 -13.1°
Sets 16:47:58 0° 6° (N) 2,920 6.9 -13.6°
